Location: Observatoire
(46.1952°N, 5.3391°E)
Time: 15:49:05
(UTC+01:00)

S-56A Canister/Altair - All Passes

Search period start: 10 February 2026 00:00
Search period end: 20 February 2026 00:00
Orbit: 632 x 2485 km, 38.9° (Epoch: 10 February)

Date Brightness Start Highest point End Pass type
(mag) Time Alt. Az. Time Alt. Az. Time Alt. Az.
10 Feb - 00:16:34 10° SSE 00:19:25 12° SE 00:22:40 10° ESE night (unlit)
10 Feb - 02:14:19 10° SW 02:21:35 39° SSE 02:32:00 10° E visible
10 Feb - 04:16:25 10° WSW 04:25:38 60° S 04:38:53 10° E visible
10 Feb - 06:19:55 10° W 06:30:47 54° SSW 06:44:53 10° SE visible
10 Feb - 08:24:48 10° W 08:35:45 33° SW 08:48:07 10° SSE daylight
10 Feb - 10:36:28 10° WSW 10:39:29 11° SW 10:42:32 10° SW daylight
11 Feb - 01:40:02 10° SSW 01:46:37 34° SSE 01:55:58 10° E visible
11 Feb - 03:41:44 10° WSW 03:50:19 58° S 04:02:54 10° E visible
11 Feb - 05:44:58 10° W 05:55:15 56° SSW 06:09:07 10° ESE visible
11 Feb - 07:49:28 10° W 08:00:15 36° SSW 08:12:58 10° SSE daylight
11 Feb - 09:58:30 10° WSW 10:04:15 13° SW 10:10:11 10° SSW daylight
12 Feb - 01:05:51 10° SSW 01:11:46 29° SE 01:19:56 10° E visible
12 Feb - 03:07:07 10° WSW 03:15:05 55° SSE 03:26:54 10° E visible
12 Feb - 05:10:07 10° W 05:19:46 57° S 05:33:17 10° ESE visible
12 Feb - 07:14:14 10° W 07:24:45 38° SSW 07:37:40 10° SSE visible
12 Feb - 09:21:50 10° WSW 09:28:57 16° SW 09:36:33 10° SSW daylight
13 Feb - 00:31:49 10° SSW 00:37:00 24° SE 00:43:53 10° E visible
13 Feb - 02:32:36 10° WSW 02:39:57 51° SSE 02:50:57 10° E visible
13 Feb - 04:35:19 10° W 04:44:23 57° S 04:57:24 10° ESE visible
13 Feb - 06:39:08 10° W 06:49:17 40° SSW 07:02:14 10° SE visible
13 Feb - 08:45:42 10° W 08:53:38 19° SW 09:02:21 10° S daylight
13 Feb - 23:57:58 10° S 00:02:18 19° SE 00:07:46 10° E night (unlit)
14 Feb - 01:58:08 10° SW 02:04:54 47° SSE 02:15:00 10° E visible
14 Feb - 04:00:36 10° W 04:09:03 57° S 04:21:29 10° ESE visible
14 Feb - 06:04:09 10° W 06:13:50 43° SSW 06:26:41 10° SE visible
14 Feb - 08:09:56 10° W 08:18:17 21° SW 08:27:48 10° S daylight
14 Feb - 23:24:25 10° SSE 23:27:40 15° SE 23:31:29 10° ESE night (unlit)
15 Feb - 01:23:45 10° SW 01:29:58 42° SSE 01:39:07 10° E visible
15 Feb - 03:25:57 10° WSW 03:33:49 57° S 03:45:34 10° ESE visible
15 Feb - 05:29:14 10° W 05:38:26 45° SSW 05:51:03 10° SE visible
15 Feb - 07:34:24 10° W 07:42:56 23° SW 07:53:00 10° S daylight
15 Feb - 22:51:50 10° SE 22:53:04 11° SE 22:54:21 10° ESE night (unlit)
16 Feb - 00:49:24 10° SW 00:55:06 37° SSE 01:03:16 10° E visible
16 Feb - 02:51:22 10° WSW 02:58:39 55° S 03:09:39 10° ESE visible
16 Feb - 04:54:25 10° W 05:03:05 46° SSW 05:15:20 10° SE visible
16 Feb - 06:59:04 10° W 07:07:35 25° SW 07:18:00 10° SSE visible
17 Feb - 00:15:09 10° SSW 00:20:19 32° SSE 00:27:28 10° E night (unlit)
17 Feb - 02:16:49 10° WSW 02:23:34 53° S 02:33:47 10° ESE visible
17 Feb - 04:19:40 10° W 04:27:48 47° SSW 04:39:35 10° SE visible
17 Feb - 06:23:53 10° W 06:32:16 27° SSW 06:42:51 10° SSE visible
17 Feb - 23:40:59 10° SSW 23:45:36 26° SSE 23:51:43 10° E night (unlit)
18 Feb - 01:42:19 10° WSW 01:48:34 50° S 01:57:57 10° E visible
18 Feb - 03:45:00 10° W 03:52:36 48° SSW 04:03:48 10° ESE visible
18 Feb - 05:48:51 10° W 05:56:58 29° SSW 06:07:34 10° SSE visible
18 Feb - 23:06:56 10° SSW 23:10:56 22° SE 23:16:00 10° E night (unlit)
19 Feb - 01:07:51 10° WSW 01:13:39 47° SSE 01:22:12 10° E visible
19 Feb - 03:10:21 10° W 03:17:28 49° S 03:28:01 10° ESE visible
19 Feb - 05:13:55 10° W 05:21:43 31° SSW 05:32:10 10° SSE visible
19 Feb - 07:22:08 10° WSW 07:25:45 12° SW 07:29:40 10° SSW daylight
19 Feb - 22:33:01 10° S 22:36:18 17° SE 22:40:13 10° ESE night (unlit)
